1499295600.75,53863,17.06,74232.8,4.67,3.97,4.01,0,*7B
1499295602.0,53864,17.06,74238.3,4.67,4.01,4.01,0,*74
1499295603.25,53865,17.06,74246.3,4.67,3.97,4.01,0,*7D
1499295604.49,53866,17.06,74240.5,4.67,3.97,3.97,0,*76
1499295605.75,53867,17.06,74228.0,4.67,3.97,3.97,0,*77
1499295606.99,53868,17.06,74226.8,4.67,3.97,3.97,0,*78
1499295608.24,53869,17.06,74220.5,4.67,3.97,3.97,0,*79
1499295609.49,53870,17.06,74218.5,4.67,3.97,3.97,0,*71
1499295610.74,53871,17.06,74216.3,4.67,3.97,3.97,0,*70
1499295611.99,53872,17.06,74218.5,4.67,3.97,3.97,0,*73
1499295613.22,53873,17.06,74218.3,4.67,3.93,3.97,0,*76
1499295614.4,53874,17.06,74218.8,4.65,3.89,3.93,0,*7C
1499295615.65,53875,17.06,74220.3,4.67,3.97,3.97,0,*74
1499295616.9,53876,17.06,74220.3,4.67,3.97,4.01,0,*7F
1499295618.15,53877,17.06,74218.0,4.67,3.97,3.97,0,*76
1499295619.4,53878,17.06,74214.3,4.67,3.97,3.97,0,*79
1499295620.58,53879,17.06,74216.5,4.65,3.89,3.89,0,*7A
1499295621.76,53880,17.06,74218.5,4.65,3.89,3.93,0,*77
1499295622.94,53881,17.06,74218.0,4.65,3.93,3.93,0,*7D
1499295624.12,53882,17.06,74216.0,4.65,3.93,3.93,0,*7E
1499295625.3,53883,17.06,74216.0,4.65,3.93,3.93,0,*7F
1499295626.48,53884,17.06,74214.0,4.65,3.93,3.93,0,*78
1499295627.7,53885,17.06,74218.0,4.65,3.97,3.97,0,*79
1499295628.92,53886,17.06,74212.3,4.65,3.97,3.97,0,*7A
1499295630.1,53887,17.06,74212.5,4.65,3.93,3.93,0,*7B
1499295631.28,53888,17.06,74216.3,4.65,3.93,3.93,0,*74
1499295632.46,53889,17.06,74218.8,4.65,3.93,3.93,0,*75
1499295633.68,53890,17.06,74216.3,4.65,3.97,3.97,0,*7D
1499295634.9,53891,17.06,74214.5,4.65,4.05,3.97,0,*70
1499295636.11,53892,17.06,74214.8,4.65,4.05,4.07,0,*7D
1499295637.32,53893,17.06,74214.3,4.65,4.05,4.07,0,*7C
1499295638.54,53894,17.06,74214.5,4.65,3.97,4.05,0,*75
1499295639.74,53895,17.06,74212.0,4.65,3.93,4.05,0,*70
1499295641.0,53896,17.06,74212.0,4.63,4.05,4.05,0,*7D
1499295642.18,53897,17.06,74214.8,4.65,4.07,4.07,0,*7A
1499295643.38,53898,17.06,74216.3,4.67,4.11,4.11,0,*77
1499295644.59,53899,17.06,74226.0,4.67,4.11,4.11,0,*76
1499295645.79,53900,17.06,74226.3,4.67,4.11,4.11,0,*77
1499295647.04,53901,17.06,74212.0,4.67,4.01,4.01,0,*76
1499295648.29,53902,17.06,74214.5,4.67,3.97,3.97,0,*75
1499295649.54,53903,17.06,74212.0,4.67,3.97,3.97,0,*74
1499295650.78,53904,17.06,74222.5,4.67,3.97,3.97,0,*73
1499295652.03,53905,17.06,74226.0,4.67,4.01,3.97,0,*7A
1499295653.28,53906,17.06,74228.0,4.67,4.01,4.01,0,*71
1499295654.5,53907,17.06,74226.5,4.65,3.97,3.97,0,*72
1499295655.75,53908,17.06,74222.8,4.67,3.97,4.01,0,*77
1499295657.0,53909,17.06,74218.3,4.67,4.01,4.01,0,*7E
1499295658.23,53910,17.06,74216.8,4.67,4.01,4.07,0,*70
1499295659.44,53911,17.06,74218.5,4.67,4.07,4.07,0,*77
1499295660.69,53912,17.06,74218.0,4.67,3.97,3.97,0,*74
1499295661.91,53913,17.06,74216.8,4.65,3.97,3.97,0,*77
1499295663.16,53914,17.06,74226.3,4.67,4.01,4.01,0,*72
1499295664.4,53915,17.06,74230.5,4.67,4.01,4.01,0,*73
1499295665.61,53916,17.06,74228.0,4.67,4.07,4.07,0,*70
1499295666.86,53917,17.06,74226.3,4.67,4.01,4.01,0,*71
1499295668.09,53918,17.06,74226.3,4.67,4.07,4.01,0,*78
1499295669.27,53919,17.06,74220.5,4.69,4.15,4.07,0,*72
1499295670.47,53920,17.06,74228.0,4.67,4.11,4.11,0,*75
1499295671.65,53921,17.06,74230.0,4.69,4.11,4.15,0,*7E
1499295672.85,53922,17.06,74226.5,4.67,4.07,4.11,0,*70
1499295674.06,53923,17.06,74224.5,4.67,4.07,4.07,0,*76
1499295675.24,53924,17.06,74228.3,4.69,4.11,4.11,0,*7F
1499295676.47,53925,17.06,74230.5,4.67,4.07,4.01,0,*76
1499295677.67,53926,17.06,74226.3,4.67,4.07,4.11,0,*74
1499295678.88,53927,17.06,74228.3,4.67,4.11,4.07,0,*75
1499295680.06,53928,17.06,74230.0,4.69,4.11,4.11,0,*73
1499295681.27,53929,17.06,74228.3,4.67,4.07,4.07,0,*7C
1499295682.47,53930,17.13,74234.8,4.67,4.07,4.11,0,*73
1499295683.67,53931,17.06,74228.8,4.67,4.07,4.11,0,*72
1499295684.87,53932,17.06,74232.0,4.67,4.11,4.11,0,*76
1499295686.08,53933,17.06,74234.5,4.67,4.07,4.07,0,*77
1499295687.31,53934,17.06,74236.0,4.67,3.97,4.11,0,*79
1499295688.55,53935,17.06,74234.8,4.67,4.01,4.01,0,*71
1499295689.76,53936,17.06,74230.0,4.69,4.07,4.01,0,*7A
1499295691.01,53937,17.06,74230.0,4.67,4.01,4.01,0,*73
1499295692.22,53938,17.06,74234.8,4.67,4.07,4.07,0,*7C
1499295693.42,53939,17.06,74234.3,4.67,4.07,4.11,0,*7A
1499295694.64,53940,17.06,74232.0,4.69,4.01,4.05,0,*79
1499295695.89,53941,17.06,74228.8,4.67,3.97,4.01,0,*7A
1499295697.12,53942,17.06,74226.3,4.69,4.05,4.05,0,*7F
1499295698.35,53943,17.06,74226.3,4.69,4.01,4.05,0,*7A
1499295699.57,53944,17.06,74224.5,4.69,4.01,4.01,0,*79
1499295700.82,53945,17.06,74228.8,4.67,4.01,4.01,0,*76
1499295702.07,53946,17.06,74222.5,4.67,3.97,4.01,0,*7D
1499295703.32,53947,17.06,74224.0,4.67,3.97,3.97,0,*74
1499295704.54,53948,17.06,74220.5,4.69,4.01,4.01,0,*75
1499295705.79,53949,17.06,74220.5,4.67,3.97,3.97,0,*7A
1499295707.04,53950,17.06,74222.5,4.67,4.01,4.01,0,*72
1499295708.27,53951,17.06,74220.0,4.69,4.05,4.05,0,*7D
1499295709.48,53952,17.06,74212.0,4.67,4.07,4.07,0,*70
1499295710.69,53953,17.06,74212.0,4.67,4.07,4.07,0,*71
1499295711.89,53954,17.06,74216.5,4.67,4.11,4.11,0,*76
1499295713.07,53955,17.06,74220.0,4.69,4.11,4.11,0,*79
1499295714.27,53956,17.06,74232.8,4.67,4.07,4.11,0,*73
1499295715.52,53957,17.06,74234.5,4.67,3.97,4.01,0,*7D
1499295716.75,53958,17.06,74232.0,4.67,3.93,3.97,0,*7E
1499295717.96,53959,17.06,74234.0,4.67,3.93,3.93,0,*7B
1499295719.17,53960,17.06,74230.5,4.67,3.93,3.93,0,*71
1499295720.38,53961,17.06,74228.8,4.67,3.93,3.93,0,*70
1499295721.61,53962,17.06,74230.8,4.67,3.97,3.93,0,*77
1499295722.86,53963,17.06,74228.5,4.67,3.97,3.97,0,*72
1499295724.09,53964,17.06,74228.5,4.67,3.93,3.97,0,*71
1499295725.33,53965,17.06,74230.3,4.67,4.01,4.01,0,*74
1499295726.58,53966,17.06,74228.3,4.67,3.97,3.97,0,*77
1499295727.81,53967,17.06,74230.8,4.67,3.93,3.97,0,*72
1499295729.02,53968,17.06,74226.5,4.67,3.93,3.93,0,*79
1499295730.22,53969,17.06,74228.0,4.67,3.93,3.85,0,*7F
1499295731.42,53970,17.06,74228.3,4.67,3.85,3.85,0,*70
1499295732.69,53971,17.06,74234.3,4.67,3.75,3.75,0,*71
1499295733.91,53972,17.06,74228.8,4.65,3.79,3.79,0,*70
1499295735.14,53973,17.13,74230.3,4.65,3.79,3.71,0,*79
1499295736.36,53974,17.06,74226.0,4.65,3.79,3.79,0,*76
1499295737.59,53975,17.06,74228.5,4.65,3.71,3.71,0,*77
1499295738.82,53976,17.06,74232.3,4.65,3.71,3.71,0,*74
1499295740.07,53977,17.06,74234.3,4.63,3.67,3.67,0,*73
1499295741.33,53978,17.13,74238.3,4.63,3.79,3.71,0,*74
1499295742.59,53979,17.06,74232.3,4.63,3.71,3.71,0,*7D
1499295743.82,53980,17.06,74228.5,4.65,3.67,3.71,0,*7A
1499295745.08,53981,17.06,74226.8,4.63,3.71,3.71,0,*7A
1499295746.33,53982,17.06,74222.5,4.63,3.71,3.79,0,*71
1499295747.57,53983,17.06,74222.0,4.61,3.75,3.75,0,*7A
1499295748.82,53984,17.06,74224.5,4.63,3.71,3.79,0,*77
1499295750.08,53985,17.06,74218.5,4.63,3.79,3.79,0,*7E
1499295751.32,53986,17.06,74216.3,4.61,3.75,3.75,0,*7F
1499295752.55,53987,17.06,74216.3,4.61,3.79,3.75,0,*72
1499295753.76,53988,17.06,74212.5,4.63,3.89,3.81,0,*7B
1499295754.97,53989,17.13,74220.0,4.63,3.81,3.89,0,*7A
1499295756.17,53990,17.06,74214.3,4.61,3.85,3.79,0,*7B
1499295757.35,53991,17.13,74224.3,4.61,3.85,3.85,0,*79
1499295758.53,53992,17.06,74220.8,4.61,3.85,3.89,0,*76
1499295759.76,53993,17.06,74222.0,4.63,3.97,3.93,0,*7D
1499295760.97,53994,17.06,74212.8,4.63,3.93,3.93,0,*7E
1499295762.2,53995,17.06,74220.5,4.63,3.97,3.93,0,*7B
1499295763.41,53996,17.06,74226.8,4.63,3.93,3.93,0,*7C
1499295764.62,53997,17.06,74226.5,4.63,3.93,3.93,0,*7D
1499295765.83,53998,17.06,74220.0,4.63,3.93,3.93,0,*72
1499295767.04,53999,17.06,74224.3,4.63,3.93,3.93,0,*73
1499295768.29,54000,17.06,74228.5,4.63,3.97,3.97,0,*7D
1499295769.52,54001,17.06,74228.0,4.63,3.97,3.93,0,*78
1499295770.75,54002,17.06,74224.8,4.63,3.97,3.93,0,*7B
1499295771.96,54003,17.06,74232.8,4.63,3.93,3.93,0,*7E
1499295773.21,54004,17.06,74230.0,4.63,3.97,4.05,0,*75
1499295774.44,54005,17.06,74232.3,4.63,3.97,3.93,0,*7C
1499295775.69,54006,17.06,74228.5,4.63,3.97,3.97,0,*7B
1499295776.92,54007,17.06,74230.0,4.63,4.07,3.97,0,*74
1499295778.18,54008,17.06,74224.5,4.63,4.05,3.97,0,*79
1499295779.41,54009,17.06,74230.3,4.63,3.93,4.05,0,*7C
1499295780.64,54010,17.06,74228.5,4.65,4.05,3.97,0,*76
1499295781.85,54011,17.06,74228.8,4.63,4.07,4.07,0,*7D
1499295783.08,54012,17.06,74230.8,4.65,4.05,4.05,0,*78
1499295784.34,54013,17.06,74230.3,4.63,4.05,3.97,0,*73
1499295785.55,54014,17.13,74230.0,4.63,3.93,3.93,0,*78
1499295786.76,54015,17.06,74228.5,4.63,3.93,3.93,0,*79
1499295787.97,54016,17.06,74230.3,4.63,3.93,3.93,0,*7A
1499295789.19,54017,17.06,74230.3,4.65,3.97,3.97,0,*7D
1499295790.44,54018,17.06,74230.3,4.63,4.05,4.05,0,*74
1499295791.68,54019,17.06,74230.8,4.63,4.05,4.07,0,*77
1499295792.9,54020,17.06,74230.8,4.65,3.97,4.05,0,*75
1499295794.11,54021,17.06,74230.8,4.63,3.93,3.93,0,*7E
1499295795.32,54022,17.06,74230.8,4.63,3.93,3.93,0,*7D
1499295796.51,54023,17.06,74224.8,4.65,3.89,3.93,0,*71
1499295797.69,54024,17.06,74226.8,4.65,3.89,3.93,0,*76
1499295798.87,54025,17.06,74226.5,4.65,3.93,3.93,0,*7C
1499295800.07,54026,17.06,74226.3,4.63,3.93,3.93,0,*79
1499295801.29,54027,17.06,74222.8,4.63,3.89,3.93,0,*73
1499295802.49,54028,17.13,74224.5,4.65,3.93,3.97,0,*75
1499295803.7,54029,17.06,74224.5,4.63,3.93,3.93,0,*76
1499295804.91,54030,17.06,74224.0,4.63,3.93,3.93,0,*7E
1499295806.14,54031,17.06,74226.5,4.63,3.93,3.97,0,*7B
1499295807.34,54032,17.06,74224.8,4.65,3.93,3.97,0,*7E
1499295808.57,54033,17.06,74224.3,4.63,3.93,3.97,0,*79
1499295809.78,54034,17.06,74228.3,4.63,3.93,3.93,0,*7A
1499295810.99,54035,17.06,74224.3,4.63,3.93,3.93,0,*7B
1499295812.2,54036,17.06,74224.0,4.63,3.93,3.93,0,*78
1499295813.38,54037,17.06,74222.5,4.65,3.93,3.93,0,*7F
1499295814.59,54038,17.06,74220.0,4.63,3.93,3.93,0,*76
1499295815.8,54039,17.06,74226.8,4.63,3.93,3.93,0,*77
1499295817.03,54040,17.06,74226.8,4.63,3.93,3.97,0,*7D
1499295818.23,54041,17.06,74230.3,4.65,3.93,3.97,0,*7A
1499295819.46,54042,17.06,74230.5,4.63,3.93,3.97,0,*7F
1499295820.67,54043,17.06,74232.5,4.63,3.89,3.93,0,*71
1499295821.84,54044,17.06,74232.8,4.65,3.81,3.81,0,*7B
1499295823.1,54045,17.06,74226.8,4.63,3.71,3.71,0,*7C
1499295824.36,54046,17.06,74220.3,4.63,3.71,3.71,0,*7F
1499295825.61,54047,17.06,74222.0,4.63,3.71,3.67,0,*79
1499295826.82,54048,17.06,74218.5,4.61,3.67,3.63,0,*77
1499295828.08,54049,17.06,74218.0,4.63,3.71,3.71,0,*70
1499295829.31,54050,17.06,74214.8,4.61,3.75,3.67,0,*79
1499295830.55,54051,17.06,74216.0,4.61,3.75,3.75,0,*7B
1499295831.75,54052,17.06,74218.8,4.61,3.63,3.67,0,*7C
1499295832.92,54053,17.06,74226.8,4.57,3.63,3.63,0,*7C
1499295834.12,54054,17.06,74222.8,4.61,3.63,3.67,0,*7A
1499295835.29,54055,17.06,74218.8,4.57,3.55,3.63,0,*7F
1499295836.46,54056,17.06,74220.5,4.57,3.63,3.63,0,*79
1499295837.63,54057,17.06,74224.3,4.57,3.55,3.63,0,*7D
1499295838.84,54058,17.06,74228.3,4.57,3.67,3.63,0,*73
1499295840.01,54059,17.06,74228.0,4.57,3.63,3.63,0,*76
1499295841.2,54060,17.06,74224.8,4.57,3.53,3.55,0,*7A
1499295842.37,54061,17.13,74230.8,4.57,3.63,3.55,0,*78
1499295843.57,54062,17.06,74222.5,4.57,3.45,3.55,0,*7F
1499295844.79,54063,17.06,74222.0,4.57,3.53,3.45,0,*78
1499295846.06,54064,17.06,74220.5,4.55,3.41,3.41,0,*7A
1499295847.29,54065,17.06,74226.5,4.55,3.41,3.29,0,*75
1499295848.52,54066,17.06,74224.3,4.55,3.29,3.37,0,*77
1499295849.75,54067,17.06,74228.5,4.53,3.33,3.33,0,*7F
1499295850.98,54068,17.06,74224.5,4.53,3.49,3.45,0,*7C
1499295852.21,54069,17.06,74224.5,4.53,3.45,3.45,0,*71
1499295853.44,54070,17.06,74224.5,4.53,3.37,3.37,0,*79
1499295854.67,54071,17.06,74228.3,4.53,3.37,3.33,0,*7C
1499295855.87,54072,17.13,74216.5,4.49,3.29,3.23,0,*7A
1499295857.07,54073,17.06,74218.5,4.51,3.25,3.25,0,*78
1499295858.29,54074,17.06,74220.5,4.51,3.25,3.23,0,*79
1499295859.52,54075,17.13,74220.5,4.49,3.23,3.11,0,*76
1499295860.77,54076,17.06,74216.3,4.51,3.23,3.23,0,*7D
1499295861.99,54077,17.06,74214.5,4.49,3.19,3.19,0,*75
1499295863.24,54078,17.06,74210.0,4.51,3.23,3.23,0,*73
1499295864.48,54079,17.06,74218.0,4.49,3.11,3.11,0,*7B
1499295865.7,54080,17.06,74218.0,4.49,3.19,3.11,0,*75
1499295866.93,54081,17.06,74220.0,4.49,3.23,3.19,0,*75
1499295868.15,54082,17.13,74224.8,4.49,3.19,3.19,0,*7F
1499295869.39,54083,17.06,74220.5,4.47,3.19,3.19,0,*70
1499295870.63,54084,17.06,74216.3,4.45,3.15,3.15,0,*75
1499295871.88,54085,17.06,74226.8,4.47,3.23,3.23,0,*76
1499295873.08,54086,17.06,74228.0,4.45,3.19,3.25,0,*78
1499295874.33,54087,17.06,74224.8,4.47,3.23,3.23,0,*74
1499295875.55,54088,17.06,74224.3,4.45,3.19,3.19,0,*79
1499295876.77,54089,17.13,74232.5,4.45,3.19,3.19,0,*78
1499295878.0,54090,17.06,74230.0,4.45,3.19,3.15,0,*7C
1499295879.2,54091,17.06,74230.8,4.45,3.25,3.19,0,*7E
1499295880.4,54092,17.06,74234.5,4.43,3.25,3.25,0,*74
1499295881.64,54093,17.06,74234.3,4.43,3.19,3.19,0,*75
1499295882.9,54094,17.06,74228.5,4.43,3.15,3.15,0,*72
1499295884.16,54095,17.06,74230.0,4.43,3.15,3.15,0,*73
1499295885.39,54096,17.06,74230.3,4.41,3.23,3.11,0,*73
1499295886.63,54097,17.06,74218.5,4.43,3.19,3.19,0,*71
1499295887.86,54098,17.06,74220.5,4.41,3.15,3.11,0,*78
1499295889.09,54099,17.13,74224.5,4.41,3.11,3.11,0,*7D
1499295890.32,54100,17.06,74220.5,4.41,3.15,3.23,0,*79
1499295891.55,54101,17.06,74220.5,4.41,3.23,3.23,0,*7D
1499295892.77,54102,17.06,74216.3,4.41,3.23,3.23,0,*7E
1499295894.0,54103,17.06,74218.5,4.41,3.23,3.15,0,*7A
1499295895.25,54104,17.06,74220.5,4.39,3.19,3.11,0,*7F
1499295896.5,54105,17.06,74216.8,4.39,3.11,3.19,0,*7E
1499295897.74,54106,17.06,74214.3,4.39,3.19,3.19,0,*75
1499295898.99,54107,17.13,74218.3,4.35,3.19,3.11,0,*70
1499295900.23,54108,17.06,74210.3,4.39,3.19,3.19,0,*7B
1499295901.48,54109,17.06,74216.3,4.39,3.11,3.19,0,*72
1499295902.72,54110,17.06,74214.8,4.35,3.19,3.19,0,*7E
1499295903.97,54111,17.06,74220.0,4.39,3.23,3.19,0,*7A
1499295905.19,54112,17.06,74214.8,4.39,3.29,3.23,0,*7A
1499295906.44,54113,17.06,74210.0,4.35,3.23,3.23,0,*7D
1499295907.69,54114,17.06,74206.0,4.35,3.23,3.23,0,*7A
1499295908.91,54115,17.06,74222.0,4.35,3.29,3.23,0,*71
1499295910.14,54116,17.06,74220.5,4.35,3.29,3.23,0,*72
1499295911.36,54117,17.06,74220.3,4.35,3.29,3.23,0,*73
1499295912.59,54118,17.06,74220.0,4.39,3.23,3.29,0,*70
1499295913.84,54119,17.06,74222.8,4.35,3.23,3.23,0,*77
1499295915.06,54120,17.06,74222.8,4.39,3.29,3.23,0,*7B
1499295916.31,54121,17.13,74220.5,4.35,3.23,3.23,0,*7C
1499295917.56,54122,17.13,74222.8,4.35,3.23,3.19,0,*76
1499295918.81,54123,17.06,74210.3,4.35,3.23,3.11,0,*7F
1499295920.06,54124,17.06,74212.3,4.35,3.23,3.19,0,*70
1499295921.29,54125,17.06,74214.5,4.33,3.19,3.15,0,*72
1499295922.52,54126,17.06,74214.3,4.33,3.19,3.15,0,*71
1499295923.74,54127,17.06,74218.8,4.33,3.19,3.19,0,*7C
1499295924.95,54128,17.06,74212.8,4.33,3.25,3.15,0,*70
1499295926.17,54129,17.06,74226.3,4.33,3.19,3.19,0,*72
1499295927.39,54130,17.06,74222.5,4.33,3.19,3.19,0,*7A
1499295928.57,54131,17.06,74214.0,4.33,3.25,3.25,0,*7B
1499295929.77,54132,17.06,74214.0,4.33,3.25,3.19,0,*77
1499295930.98,54133,17.13,74214.8,4.31,3.25,3.25,0,*7B
1499295932.18,54134,17.06,74214.5,4.33,3.25,3.19,0,*71
1499295933.36,54135,17.13,74224.3,4.33,3.25,3.25,0,*7F
1499295934.55,54136,17.06,74220.5,4.33,3.25,3.25,0,*7C
1499295935.75,54137,17.06,74220.5,4.31,3.25,3.25,0,*7F
1499295936.98,54138,17.13,74224.3,4.31,3.19,3.25,0,*7F
1499295938.19,54139,17.06,74224.5,4.31,3.25,3.29,0,*7D
1499295939.4,54140,17.06,74224.0,4.31,3.25,3.25,0,*7F
1499295940.65,54141,17.06,74228.0,4.31,3.19,3.19,0,*7E
1499295941.9,54142,17.13,74232.0,4.31,3.19,3.19,0,*7D
1499295943.14,54143,17.06,74228.8,4.31,3.19,3.19,0,*7C
1499295944.37,54144,17.13,74238.0,4.33,3.19,3.15,0,*75
1499295945.62,54145,17.06,74224.8,4.31,3.19,3.19,0,*7A
1499295946.89,54146,17.06,74228.3,4.31,3.15,3.15,0,*79
1499295948.14,54147,17.06,74228.8,4.31,3.19,3.15,0,*74
1499295949.38,54148,17.06,74220.0,4.29,3.23,3.15,0,*7B
1499295950.61,54149,17.06,74212.8,4.29,3.15,3.23,0,*7A
1499295951.85,54150,17.13,74216.3,4.29,3.23,3.15,0,*72
1499295953.08,54151,17.13,74214.8,4.29,3.23,3.23,0,*76
1499295954.28,54152,17.13,74220.5,4.29,3.25,3.23,0,*73
1499295955.49,54153,17.06,74216.0,4.29,3.15,3.25,0,*77
1499295956.7,54154,17.13,74220.0,4.29,3.25,3.15,0,*70
1499295957.91,54155,17.06,74214.3,4.31,3.29,3.25,0,*77
1499295959.12,54156,17.06,74212.3,4.31,3.29,3.29,0,*78
1499295960.33,54157,17.06,74216.5,4.29,3.25,3.37,0,*73
1499295961.53,54158,17.06,74212.5,4.29,3.33,3.25,0,*78
1499295962.76,54159,17.06,74214.5,4.29,3.45,3.33,0,*7F
1499295963.99,54160,17.06,74210.3,4.29,3.37,3.37,0,*74
1499295965.22,54161,17.06,74212.3,4.29,3.45,3.37,0,*70
1499295966.46,54162,17.06,74210.0,4.29,3.45,3.45,0,*76
1499295967.69,54163,17.06,74214.0,4.29,3.45,3.45,0,*77
1499295968.92,54164,17.06,74206.5,4.29,3.49,3.49,0,*70
1499295970.12,54165,17.13,74212.3,4.29,3.49,3.55,0,*7C
1499295971.35,54166,17.13,74216.8,4.29,3.45,3.49,0,*7E
1499295972.52,54167,17.06,74212.8,4.29,3.55,3.55,0,*73
1499295973.72,54168,17.06,74214.3,4.29,3.49,3.55,0,*71
1499295974.89,54169,17.06,74214.0,4.29,3.55,3.55,0,*7D
1499295976.06,54170,17.06,74208.8,4.29,3.55,3.55,0,*75
1499295977.27,54171,17.06,74210.3,4.31,3.59,3.59,0,*7D
1499295978.47,54172,17.06,74210.0,4.31,3.59,3.59,0,*7E
1499295979.65,54173,17.06,74210.0,4.33,3.63,3.59,0,*74
1499295980.85,54174,17.06,74212.5,4.31,3.63,3.63,0,*78
1499295982.08,54175,17.06,74212.8,4.33,3.67,3.67,0,*7B
1499295983.29,54176,17.06,74208.3,4.33,3.67,3.63,0,*7C
1499295984.49,54177,17.06,74218.0,4.31,3.63,3.63,0,*7B
1499295985.75,54178,17.06,74218.8,4.31,3.67,3.67,0,*74
1499295986.95,54179,17.06,74214.5,4.33,3.63,3.67,0,*73
1499295988.2,54180,17.06,74212.0,4.35,3.71,3.71,0,*77
1499295989.41,54181,17.06,74210.8,4.33,3.67,3.63,0,*74
1499295990.66,54182,17.06,74218.3,4.35,3.71,3.71,0,*75
1499295991.92,54183,17.13,74216.8,4.35,3.71,3.71,0,*74
1499295993.17,54184,17.06,74214.3,4.39,3.71,3.71,0,*7F
1499295994.42,54185,17.06,74216.5,4.35,3.79,3.67,0,*7D
1499295995.68,54186,17.06,74214.5,4.35,3.67,3.67,0,*71
1499295996.93,54187,17.13,74210.8,4.35,3.71,3.71,0,*70
1499295998.18,54188,17.06,74214.5,4.39,3.71,3.67,0,*74
1499295999.43,54189,17.06,74218.5,4.35,3.71,3.71,0,*7E
1499296000.69,54190,17.06,74222.5,4.39,3.67,3.67,0,*7A
1499296001.94,54191,17.06,74222.0,4.39,3.67,3.67,0,*7B
1499296003.19,54192,17.06,74220.3,4.35,3.71,3.71,0,*74
1499296004.45,54193,17.06,74222.3,4.39,3.71,3.71,0,*79
1499296005.7,54194,17.13,74226.8,4.35,3.71,3.71,0,*72
1499296006.95,54195,17.13,74230.5,4.39,3.71,3.71,0,*7F
1499296008.18,54196,17.13,74230.5,4.39,3.67,3.81,0,*74
1499296009.44,54197,17.06,74226.5,4.39,3.71,3.71,0,*7D
1499296010.69,54198,17.06,74226.8,4.39,3.67,3.71,0,*75
1499296011.95,54199,17.06,74226.8,4.39,3.67,3.67,0,*73
1499296013.18,54200,17.13,74226.8,4.41,3.75,3.75,0,*7F
1499296014.41,54201,17.06,74222.3,4.41,3.75,3.71,0,*7A
1499296015.66,54202,17.06,74222.5,4.39,3.71,3.67,0,*75
1499296016.89,54203,17.13,74230.3,4.41,3.71,3.71,0,*7C
1499296018.12,54204,17.06,74226.0,4.41,3.71,3.71,0,*7B
1499296019.36,54205,17.06,74220.8,4.41,3.75,3.71,0,*7E
1499296020.59,54206,17.13,74228.5,4.41,3.71,3.75,0,*7D
1499296021.81,54207,17.06,74224.8,4.41,3.71,3.71,0,*78
1499296023.04,54208,17.06,74226.5,4.41,3.71,3.71,0,*77
1499296024.28,54209,17.13,74228.3,4.41,3.75,3.75,0,*76
1499296025.53,54210,17.13,74234.0,4.43,3.79,3.71,0,*74
1499296026.79,54211,17.06,74228.0,4.43,3.75,3.75,0,*7D
1499296028.02,54212,17.06,74224.0,4.41,3.75,3.75,0,*7C
1499296029.28,54213,17.06,74222.3,4.43,3.75,3.79,0,*73
1499296030.48,54214,17.13,74226.3,4.41,3.75,3.81,0,*71
1499296031.71,54215,17.06,74230.0,4.43,3.75,3.85,0,*76
1499296032.91,54216,17.06,74226.5,4.41,3.79,3.85,0,*7B
1499296034.14,54217,17.06,74224.3,4.43,3.79,3.85,0,*78
1499296035.39,54218,17.06,74220.3,4.43,3.79,3.79,0,*74
1499296036.61,54219,17.06,74220.8,4.43,3.79,3.85,0,*76
1499296037.86,54220,17.06,74212.0,4.43,3.79,3.79,0,*7F
1499296039.08,54221,17.06,74212.0,4.43,3.79,3.85,0,*7D
1499296040.31,54222,17.06,74212.3,4.43,3.85,3.79,0,*7E
1499296041.51,54223,17.06,74216.0,4.43,3.85,3.89,0,*70
1499296042.71,54224,17.06,74218.5,4.43,3.85,3.89,0,*77
1499296043.91,54225,17.13,74220.0,4.43,3.85,3.85,0,*7A
1499296045.08,54226,17.06,74218.0,4.45,3.85,3.85,0,*7F
1499296046.25,54227,17.06,74216.3,4.45,3.85,3.85,0,*7E
1499296047.43,54228,17.06,74222.0,4.45,3.85,3.85,0,*71
1499296048.6,54229,17.06,74216.0,4.45,3.85,3.85,0,*70
1499296049.78,54230,17.06,74218.0,4.45,3.89,3.89,0,*78
1499296050.96,54231,17.06,74216.0,4.45,3.85,3.89,0,*75
1499296052.14,54232,17.06,74218.3,4.45,3.85,3.89,0,*76
1499296053.32,54233,17.06,74226.5,4.45,3.85,3.85,0,*7B
1499296054.52,54234,17.06,74228.8,4.45,3.79,3.85,0,*7F
1499296055.72,54235,17.13,74228.3,4.45,3.79,3.85,0,*7E
1499296056.93,54236,17.06,74228.0,4.47,3.89,3.81,0,*74
1499296058.11,54237,17.06,74226.3,4.49,3.89,3.89,0,*73
1499296059.32,54238,17.06,74230.0,4.47,3.89,3.89,0,*72
1499296060.51,54239,17.13,74230.3,4.49,3.89,3.89,0,*7D
1499296061.68,54240,17.06,74226.8,4.45,3.85,3.85,0,*7F
1499296062.87,54241,17.06,74226.0,4.49,3.89,3.89,0,*72
1499296064.08,54242,17.06,74222.8,4.47,3.89,3.93,0,*74
1499296065.29,54243,17.06,74220.3,4.47,3.89,3.93,0,*75
1499296066.5,54244,17.13,74214.3,4.47,3.93,3.89,0,*72
1499296067.7,54245,17.06,74212.3,4.47,3.93,3.93,0,*78
1499296068.91,54246,17.06,74212.5,4.47,3.89,3.89,0,*7B
1499296070.14,54247,17.06,74208.3,4.47,3.81,3.79,0,*7D
1499296071.35,54248,17.06,74206.5,4.47,3.81,3.81,0,*75
1499296072.55,54249,17.06,74206.0,4.47,3.81,3.81,0,*74
1499296073.74,54250,17.06,74212.0,4.49,3.89,3.93,0,*79
1499296074.95,54251,17.06,74210.3,4.47,3.89,3.81,0,*75
1499296076.15,54252,17.06,74214.0,4.47,3.81,3.81,0,*7E
1499296077.39,54253,17.06,74214.0,4.47,3.79,3.89,0,*70
1499296078.64,54254,17.06,74214.3,4.47,3.79,3.79,0,*78
1499296079.87,54255,17.13,74220.8,4.47,3.81,3.79,0,*7E
1499296081.07,54256,17.06,74216.8,4.47,3.81,3.81,0,*7A
1499296082.28,54257,17.06,74220.3,4.47,3.81,3.81,0,*7B
1499296083.48,54258,17.06,74218.5,4.51,3.85,3.93,0,*74
1499296084.66,54259,17.06,74220.5,4.49,3.89,3.81,0,*73
1499296085.89,54260,17.06,74222.5,4.49,3.79,3.79,0,*71
1499296087.1,54261,17.06,74230.5,4.47,3.81,3.81,0,*7E
1499296088.33,54262,17.06,74222.3,4.49,3.79,3.79,0,*73
1499296089.56,54263,17.06,74216.5,4.49,3.79,3.79,0,*72
1499296090.79,54264,17.06,74216.0,4.49,3.79,3.79,0,*75
1499296092.02,54265,17.13,74222.5,4.49,3.79,3.79,0,*74
1499296093.25,54266,17.06,74214.3,4.49,3.79,3.79,0,*77
1499296094.48,54267,17.06,74208.5,4.49,3.79,3.79,0,*76
1499296095.71,54268,17.06,74206.5,4.49,3.79,3.79,0,*79
1499296096.95,54269,17.06,74202.3,4.49,3.75,3.75,0,*78
1499296098.21,54270,17.06,74200.8,4.47,3.67,3.75,0,*7D
1499296099.47,54271,17.06,74196.8,4.47,3.75,3.75,0,*7F
1499296100.73,54272,17.06,74198.8,4.47,3.75,3.75,0,*7C
1499296101.99,54273,17.06,74202.3,4.47,3.75,3.67,0,*7E
1499296103.22,54274,17.06,74210.8,4.49,3.75,3.75,0,*74
1499296104.46,54275,17.06,74208.3,4.49,3.75,3.67,0,*76
1499296105.72,54276,17.06,74218.3,4.47,3.75,3.75,0,*78
1499296106.97,54277,17.13,74218.8,4.47,3.67,3.67,0,*79
1499296108.23,54278,17.06,74214.8,4.47,3.75,3.75,0,*76
1499296109.49,54279,17.06,74224.0,4.47,3.75,3.75,0,*77
1499296110.73,54280,17.06,74226.3,4.49,3.75,3.75,0,*7F
1499296111.99,54281,17.06,74222.8,4.47,3.75,3.67,0,*73
1499296113.25,54282,17.06,74222.3,4.47,3.75,3.75,0,*73
1499296114.5,54283,17.06,74222.8,4.47,3.67,3.67,0,*72
1499296115.74,54284,17.06,74222.8,4.49,3.75,3.67,0,*78
1499296116.99,54285,17.06,74220.3,4.47,3.67,3.67,0,*74
1499296118.22,54286,17.06,74218.5,4.47,3.63,3.67,0,*73
1499296119.48,54287,17.06,74218.5,4.47,3.67,3.75,0,*75
1499296120.73,54288,17.06,74216.3,4.47,3.67,3.67,0,*79
1499296121.99,54289,17.06,74222.5,4.47,3.67,3.67,0,*78
1499296123.22,54290,17.06,74222.5,4.49,3.75,3.67,0,*7D
1499296124.45,54291,17.06,74224.3,4.45,3.71,3.71,0,*73
1499296125.71,54292,17.06,74224.8,4.47,3.75,3.71,0,*76
1499296126.97,54293,17.06,74220.8,4.47,3.67,3.75,0,*70
1499296128.23,54294,17.06,74226.8,4.47,3.75,3.71,0,*70
1499296129.46,54295,17.06,74220.8,4.47,3.67,3.63,0,*71
1499296130.69,54296,17.06,74224.3,4.47,3.67,3.63,0,*72
1499296131.92,54297,17.06,74226.5,4.47,3.67,3.63,0,*73
1499296133.1,54298,17.06,74226.8,4.45,3.63,3.63,0,*7A
1499296134.27,54299,17.06,74228.5,4.45,3.63,3.63,0,*7B